Ellsworth AFB, SD

3:42 PM MDT on April 19, 2018 (GMT -0600)
Ellsworth Air Force Base

Weather History for KRCA - October, 2013

Change the Weather History Date:

Monday, October 28, 2013

  Actual Average Record
Temperature  
Mean Temperature 30 °F -  
Max Temperature 35 °F 50 °F 79 °F (2016)
Min Temperature 24 °F 30 °F 23 °F (2017)
Degree Days  
Heating Degree Days 36    
Moisture  
Dew Point 25 °F    
Average Humidity 91    
Maximum Humidity 100    
Minimum Humidity 75    
Precipitation  
Precipitation 0.03 in - - ()
Sea Level Pressure  
Sea Level Pressure 30.28 in    
Wind  
Wind Speed 9 mph (ENE)    
Max Wind Speed 15 mph    
Max Gust Speed -    
Visibility 6 miles    
Events Snow    
Averages and records for this station are not official NWS values.
T = Trace of Precipitation, MM = Missing Value Source: NWS Daily Summary

Daily Weather History Graph

Daily Weather History Graph

Search for Another Location

Airport or City:

Astronomy

Oct. 28, 2013 Rise Set
Actual Time 7:24 AM MDT 5:47 PM MDT
Civil Twilight 6:54 AM MDT 6:17 PM MDT
Nautical Twilight 6:20 AM MDT 6:51 PM MDT
Astronomical Twilight 5:46 AM MDT 7:24 PM MDT
Moon 1:06 AM MDT (10/28) 2:41 PM MDT (10/28)
Length of Visible Light 11h 22m
Length of Day
10h 23m
Waning Crescent, 33% of the Moon is Illuminated
Oct 28
Waning Crescent
Nov 3
New
Nov 9
First Quarter
Nov 17
Full
Nov 25
Last Quarter

Hourly Weather History & Observations

Time (MDT) Temp. Windchill Dew Point Humidity Pressure Visibility Wind Dir Wind Speed Gust Speed Precip Events Conditions
12:28 AM 35.6 °F 29.2 °F 28.4 °F 75% 30.17 in 10.0 mi East 8.1 mph - N/A   Overcast
12:43 AM 35.6 °F 27.5 °F 28.4 °F 75% 30.18 in 10.0 mi East 11.5 mph - N/A   Overcast
12:48 AM 35.6 °F 27.5 °F 28.4 °F 75% 30.18 in 10.0 mi East 11.5 mph - N/A   Overcast
12:58 AM 35.1 °F 26.9 °F 28.0 °F 76% 30.21 in 10.0 mi East 11.5 mph - N/A   Overcast
1:21 AM 33.8 °F 25.3 °F 28.4 °F 81% 30.18 in 10.0 mi ENE 11.5 mph - N/A   Overcast
1:25 AM 33.8 °F 24.8 °F 28.4 °F 81% 30.18 in 10.0 mi NE 12.7 mph - N/A   Overcast
1:29 AM 32.0 °F 24.8 °F 28.4 °F 87% 30.19 in 10.0 mi NE 8.1 mph - N/A   Overcast
1:30 AM 32.0 °F 23.6 °F 28.4 °F 87% 30.19 in 10.0 mi NE 10.4 mph - N/A   Overcast
1:56 AM 32.0 °F 23.0 °F 26.6 °F 80% 30.19 in 10.0 mi ENE 11.5 mph - N/A   Overcast
2:32 AM 32.0 °F 21.6 °F 26.6 °F 80% 30.21 in 10.0 mi ENE 15.0 mph - N/A   Overcast
2:52 AM 32.0 °F 22.1 °F 26.6 °F 80% 30.21 in 10.0 mi ENE 13.8 mph - N/A   Overcast
2:57 AM 32.0 °F 22.1 °F 26.6 °F 80% 30.22 in 10.0 mi ENE 13.8 mph - N/A   Overcast
2:58 AM 30.6 °F 20.7 °F 25.9 °F 83% 30.26 in 10.0 mi ENE 12.7 mph - N/A   Overcast
3:58 AM 29.3 °F 19.6 °F 24.8 °F 83% 30.29 in 10.0 mi ENE 11.5 mph - N/A   Overcast
4:58 AM 28.4 °F 19.7 °F 24.3 °F 84% 30.30 in 10.0 mi ENE 9.2 mph - N/A   Overcast
5:02 AM 28.4 °F 18.0 °F 24.8 °F 86% 30.25 in 10.0 mi ENE 12.7 mph - N/A   Overcast
5:48 AM 26.6 °F 15.7 °F 23.0 °F 86% 30.26 in 10.0 mi ENE 12.7 mph - N/A   Overcast
5:58 AM 27.3 °F 16.6 °F 23.7 °F 86% 30.32 in 10.0 mi ENE 12.7 mph - N/A   Overcast
6:25 AM 26.6 °F 16.8 °F 23.0 °F 86% 30.26 in 10.0 mi ENE 10.4 mph - N/A   Overcast
6:40 AM 26.6 °F 16.8 °F 23.0 °F 86% 30.26 in 10.0 mi ENE 10.4 mph - N/A Snow Light Snow
6:43 AM 26.6 °F 16.8 °F 23.0 °F 86% 30.26 in 10.0 mi ENE 10.4 mph - N/A Snow Light Snow
6:54 AM 26.6 °F 17.5 °F 23.0 °F 86% 30.27 in 10.0 mi East 9.2 mph - N/A   Overcast
6:58 AM 26.8 °F 18.5 °F 23.7 °F 88% 30.35 in 10.0 mi East 8.1 mph - 0.00 in   Overcast
7:33 AM 26.6 °F 18.2 °F 24.8 °F 93% 30.27 in 10.0 mi ENE 8.1 mph - N/A   Overcast
7:58 AM 26.2 °F 17.8 °F 23.7 °F 90% 30.37 in 10.0 mi East 8.1 mph - N/A   Overcast
8:58 AM 26.1 °F 17.6 °F 23.7 °F 91% 30.41 in 10.0 mi East 8.1 mph - N/A Snow Light Snow
9:00 AM 26.6 °F 18.2 °F 23.0 °F 86% 30.31 in 10.0 mi East 8.1 mph - N/A Snow Light Snow
9:02 AM 26.6 °F 17.5 °F 23.0 °F 86% 30.31 in 10.0 mi East 9.2 mph - N/A   Overcast
9:58 AM 25.9 °F 18.2 °F 23.9 °F 92% 30.41 in 10.0 mi ENE 6.9 mph - N/A Snow Light Snow
9:59 AM 26.6 °F 18.2 °F 24.8 °F 93% 30.31 in 10.0 mi ENE 8.1 mph - N/A   Overcast
10:09 AM 24.8 °F 16.9 °F 23.0 °F 93% 30.31 in 2.5 mi ENE 6.9 mph - N/A   Overcast
10:14 AM 24.8 °F 16.9 °F 23.0 °F 93% 30.31 in 1.8 mi ENE 6.9 mph - N/A   Overcast
10:19 AM 24.8 °F 16.9 °F 24.8 °F 100% 30.31 in 1.8 mi ENE 6.9 mph - N/A   Overcast
10:24 AM 24.8 °F 15.3 °F 24.8 °F 100% 30.31 in 2.0 mi East 9.2 mph - N/A   Overcast
10:29 AM 24.8 °F 17.9 °F 24.8 °F 100% 30.31 in 1.8 mi NE 5.8 mph - N/A   Overcast
10:34 AM 24.8 °F 16.9 °F 24.8 °F 100% 30.30 in 1.5 mi East 6.9 mph - N/A   Overcast
10:39 AM 24.8 °F 16.9 °F 24.8 °F 100% 30.30 in 1.8 mi East 6.9 mph - N/A   Overcast
10:44 AM 24.8 °F 15.3 °F 24.8 °F 100% 30.30 in 3.0 mi East 9.2 mph - N/A   Overcast
10:49 AM 24.8 °F 16.1 °F 24.8 °F 100% 30.30 in 2.0 mi ENE 8.1 mph - N/A   Overcast
10:54 AM 24.8 °F 16.1 °F 23.0 °F 93% 30.30 in 1.2 mi ENE 8.1 mph - N/A   Overcast
10:58 AM 25.3 °F 16.0 °F 23.9 °F 94% 30.40 in 1.0 mi ENE 9.2 mph - N/A   Mist
11:03 AM 24.8 °F 16.1 °F 23.0 °F 93% 30.29 in 1.0 mi ENE 8.1 mph - N/A   Mist
11:08 AM 24.8 °F 14.6 °F 24.8 °F 100% 30.29 in 1.0 mi ENE 10.4 mph - N/A   Mist
11:13 AM 24.8 °F 14.0 °F 24.8 °F 100% 30.28 in 1.5 mi East 11.5 mph - N/A   Overcast
11:18 AM 24.8 °F 16.1 °F 24.8 °F 100% 30.28 in 2.5 mi ENE 8.1 mph - N/A   Overcast
11:23 AM 24.8 °F 16.1 °F 24.8 °F 100% 30.29 in 5.0 mi East 8.1 mph - N/A   Overcast
11:25 AM 26.6 °F 18.2 °F 24.8 °F 93% 30.29 in 8.0 mi East 8.1 mph - N/A Snow Light Snow
11:35 AM 24.8 °F 15.3 °F 24.8 °F 100% 30.29 in 2.0 mi NE 9.2 mph - N/A Snow Light Snow
11:40 AM 26.6 °F 18.2 °F 24.8 °F 93% 30.29 in 2.5 mi ENE 8.1 mph - N/A Snow Light Snow
11:50 AM 24.8 °F 16.9 °F 24.8 °F 100% 30.30 in 2.0 mi East 6.9 mph - N/A Snow Light Snow
11:55 AM 26.6 °F 19.1 °F 24.8 °F 93% 30.30 in 2.0 mi East 6.9 mph - N/A Snow Light Snow
11:58 AM 25.7 °F 18.0 °F 24.3 °F 94% 30.41 in 2.0 mi ENE 6.9 mph - 0.00 in Snow Light Snow
12:13 PM 26.6 °F 18.2 °F 24.8 °F 93% 30.29 in 2.5 mi East 8.1 mph - N/A Snow Light Snow
12:18 PM 26.6 °F 20.0 °F 24.8 °F 93% 30.29 in 4.0 mi East 5.8 mph - N/A Snow Light Snow
12:30 PM 26.6 °F 20.0 °F 24.8 °F 93% 30.29 in 10.0 mi East 5.8 mph - N/A   Overcast
12:49 PM 26.6 °F 20.0 °F 23.0 °F 86% 30.27 in 10.0 mi East 5.8 mph - N/A   Overcast
12:58 PM 27.5 °F 21.1 °F 23.9 °F 86% 30.38 in 10.0 mi East 5.8 mph - 0.00 in   Overcast
1:38 PM 26.6 °F 20.0 °F 23.0 °F 86% 30.26 in 10.0 mi East 5.8 mph - N/A   Overcast
1:58 PM 27.7 °F 20.4 °F 23.7 °F 85% 30.37 in 10.0 mi East 6.9 mph - N/A   Overcast
2:24 PM 28.4 °F 21.2 °F 24.8 °F 86% 30.25 in 10.0 mi East 6.9 mph - N/A   Overcast
2:44 PM 26.6 °F 18.2 °F 24.8 °F 93% 30.24 in 10.0 mi East 8.1 mph - N/A   Overcast
2:58 PM 27.5 °F 19.3 °F 24.4 °F 88% 30.35 in 10.0 mi ENE 8.1 mph - N/A   Overcast
3:18 PM 26.6 °F 18.2 °F 24.8 °F 93% 30.24 in 10.0 mi ENE 8.1 mph - N/A   Overcast
3:52 PM 26.6 °F 17.5 °F 24.8 °F 93% 30.25 in 10.0 mi ENE 9.2 mph - N/A Snow Light Snow
3:57 PM 26.6 °F 16.8 °F 24.8 °F 93% 30.25 in 10.0 mi ENE 10.4 mph - N/A Snow Light Snow
3:58 PM 27.1 °F 18.9 °F 24.6 °F 90% 30.38 in 10.0 mi ENE 8.1 mph - 0.00 in Snow Light Snow
4:38 PM 26.6 °F 16.8 °F 24.8 °F 93% 30.23 in 1.5 mi ENE 10.4 mph - N/A Snow Light Snow
4:58 PM 27.0 °F 19.5 °F 25.0 °F 92% 30.35 in 1.0 mi NE 6.9 mph - 0.00 in Snow Light Snow
5:05 PM 26.6 °F 17.5 °F 24.8 °F 93% 30.24 in 1.8 mi ENE 9.2 mph - N/A Snow Light Snow
5:10 PM 26.6 °F 16.8 °F 24.8 °F 93% 30.23 in 2.0 mi ENE 10.4 mph - N/A Snow Light Snow
5:23 PM 26.6 °F 18.2 °F 24.8 °F 93% 30.24 in 2.5 mi ENE 8.1 mph - N/A Snow Light Snow
5:28 PM 26.6 °F 19.1 °F 24.8 °F 93% 30.24 in 3.0 mi ENE 6.9 mph - N/A Snow Light Snow
5:33 PM 26.6 °F 19.1 °F 24.8 °F 93% 30.24 in 4.0 mi ENE 6.9 mph - N/A Snow Light Snow
5:43 PM 26.6 °F 20.0 °F 24.8 °F 93% 30.25 in 4.0 mi ENE 5.8 mph - N/A Snow Light Snow
5:48 PM 26.6 °F 20.0 °F 24.8 °F 93% 30.25 in 4.0 mi ENE 5.8 mph - N/A   Overcast
5:58 PM 27.1 °F 19.7 °F 24.8 °F 91% 30.38 in 5.0 mi ENE 6.9 mph - 0.02 in Snow Light Snow
6:18 PM 26.6 °F 19.1 °F 24.8 °F 93% 30.25 in 6.0 mi NE 6.9 mph - N/A Snow Light Snow
6:28 PM 26.6 °F 20.0 °F 24.8 °F 93% 30.25 in 1.0 mi ENE 5.8 mph - N/A Snow Light Snow
6:33 PM 26.6 °F 19.1 °F 24.8 °F 93% 30.25 in 1.5 mi NE 6.9 mph - N/A Snow Light Snow
6:38 PM 26.6 °F 20.0 °F 24.8 °F 93% 30.25 in 2.0 mi ENE 5.8 mph - N/A Snow Light Snow
6:43 PM 26.6 °F 20.0 °F 24.8 °F 93% 30.25 in 2.5 mi NE 5.8 mph - N/A Snow Light Snow
6:48 PM 26.6 °F 19.1 °F 24.8 °F 93% 30.25 in 3.0 mi NE 6.9 mph - N/A Snow Light Snow
6:52 PM 26.6 °F 19.1 °F 24.8 °F 93% 30.25 in 4.0 mi NE 6.9 mph - N/A Snow Light Snow
6:57 PM 26.6 °F 19.1 °F 24.8 °F 93% 30.25 in 4.0 mi NE 6.9 mph - N/A Snow Light Snow
6:58 PM 27.1 °F 18.9 °F 25.2 °F 92% 30.38 in 4.0 mi NE 8.1 mph - 0.01 in Snow Light Snow
7:18 PM 26.6 °F 20.0 °F 24.8 °F 93% 30.24 in 4.0 mi NE 5.8 mph - N/A Snow Light Snow
7:23 PM 26.6 °F 18.2 °F 24.8 °F 93% 30.24 in 3.0 mi NE 8.1 mph - N/A Snow Light Snow
7:53 PM 26.6 °F 19.1 °F 24.8 °F 93% 30.24 in 9.0 mi NE 6.9 mph - N/A Snow Light Snow
7:58 PM 27.3 °F 19.9 °F 25.3 °F 92% 30.37 in 7.0 mi ENE 6.9 mph - 0.00 in   Overcast
8:21 PM 26.6 °F 17.5 °F 24.8 °F 93% 30.23 in 10.0 mi ENE 9.2 mph - N/A   Overcast
8:58 PM 27.1 °F 18.9 °F 25.2 °F 92% 30.36 in 10.0 mi East 8.1 mph - 0.00 in   Overcast
9:26 PM 26.6 °F 18.2 °F 24.8 °F 93% 30.24 in 7.0 mi East 8.1 mph - N/A   Light Freezing Drizzle
9:58 PM 27.3 °F 22.0 °F 25.7 °F 94% 30.37 in 4.0 mi East 4.6 mph - 0.00 in   Light Freezing Drizzle
10:58 PM 27.7 °F 19.6 °F 26.2 °F 94% 30.37 in 4.0 mi ESE 8.1 mph - 0.00 in   Light Freezing Drizzle
11:58 PM 28.0 °F 19.3 °F 26.6 °F 94% 30.35 in 4.0 mi ESE 9.2 mph - 0.00 in   Light Freezing Drizzle